QPF
0.00 0.00 0.00 0.00 0.00 0.00 0.00 0.00 0.00 0.00 0.00 0.00 0.00 0.00 0.00 0.00 0.00 0.00 0.00 0.00 0.00 0.00 0.00 0.00 0.00 0.00 0.00 0.00 0.00 0.00 0.00 0.00 0.00 0.00 0.01 0.02 0.04 0.00 0.00 0.00 0.00 0.00 0.00
0.01 0.00 0.00 0.00 0.00 0.00 0.00 0.00 0.00 0.00 0.00 0.00 0.00 0.00 0.00 0.00 0.00 0.00 0.00 0.00 0.00 0.00 0.00 0.00 0.00 0.00 0.00 0.00 0.00 0.00 0.00 0.00 0.00 0.00 0.02 0.05 0.10 0.00 0.00 0.00 0.00 0.00 0.00
0.02 0.00 0.00 0.00 0.00 0.00 0.00 0.00 0.00 0.00 0.00 0.00 0.00 0.00 0.00 0.00 0.00 0.00 0.00 0.00 0.00 0.00 0.00 0.00 0.00 0.00 0.00 0.00 0.00 0.00 0.00 0.00 0.00 0.00 0.04 0.05 0.01 0.00 0.00 0.00 0.00 0.00 0.00
0.00 0.00 0.00 0.00 0.01 0.00 0.00 0.00 0.00 0.00 0.00 0.00 0.00 0.00 0.00 0.00 0.00 0.00 0.00 0.00 0.00 0.00 0.00 0.00 0.00 0.00 0.00 0.00 0.00 0.00 0.00 0.00 0.00 0.00 0.01 0.01 0.00 0.00 0.00 0.00 0.00 0.00 0.00
0.00 0.00 0.00 0.01 0.03 0.00 0.00 0.00 0.00 0.00 0.00 0.00 0.00 0.00 0.00 0.00 0.00 0.00 0.00 0.00 0.00 0.00 0.00 0.00 0.00 0.00 0.00 0.00 0.00 0.00 0.00 0.00 0.00 0.00 0.00 0.00 0.00 0.00 0.00 0.00 0.00 0.00 0.00
0.03 0.03 0.01 0.07 0.04 0.00 0.00 0.00 0.00 0.00 0.00 0.00 0.00 0.00 0.00 0.00 0.00 0.00 0.00 0.00 0.00 0.00 0.00 0.00 0.00 0.00 0.00 0.00 0.00 0.00 0.00 0.00 0.00 0.00 0.00 0.00 0.00 0.00 0.00 0.00 0.00 0.00 0.00
0.23 0.13 0.03 0.09 0.07 0.02 0.00 0.00 0.00 0.00 0.00 0.00 0.00 0.00 0.00 0.00 0.00 0.00 0.00 0.00 0.00 0.00 0.00 0.00 0.00 0.00 0.00 0.00 0.00 0.00 0.00 0.00 0.00 0.00 0.00 0.00 0.00 0.00 0.00 0.00 0.00 0.00 0.00
0.39 0.26 0.22 0.16 0.06 0.01 0.00 0.00 0.00 0.00 0.00 0.00 0.00 0.00 0.00 0.00 0.00 0.00 0.00 0.00 0.00 0.00 0.00 0.00 0.00 0.00 0.00 0.00 0.00 0.00 0.00 0.00 0.00 0.00 0.00 0.00 0.00 0.00 0.00 0.00 0.00 0.00 0.00
0.23 0.22 0.38 0.08 0.01 0.00 0.00 0.00 0.00 0.00 0.00 0.00 0.00 0.00 0.00 0.00 0.00 0.00 0.00 0.00 0.00 0.00 0.00 0.00 0.00 0.00 0.00 0.00 0.00 0.00 0.00 0.00 0.00 0.00 0.00 0.00 0.00 0.00 0.00 0.00 0.00 0.00 0.00
0.34 0.18 0.29 0.05 0.00 0.00 0.00 0.00 0.00 0.00 0.00 0.00 0.00 0.00 0.00 0.00 0.00 0.00 0.00 0.00 0.00 0.00 0.00 0.00 0.00 0.00 0.00 0.00 0.00 0.00 0.00 0.00 0.00 0.00 0.00 0.00 0.00 0.00 0.00 0.00 0.00 0.00 0.00
0.37 0.34 0.26 0.01 0.00 0.00 0.00 0.00 0.00 0.00 0.00 0.00 0.00 0.00 0.00 0.00 0.00 0.00 0.00 0.00 0.00 0.00 0.00 0.00 0.00 0.00 0.00 0.00 0.00 0.00 0.00 0.00 0.00 0.00 0.00 0.00 0.00 0.00 0.00 0.00 0.00 0.00 0.00
0.30 0.09 0.08 0.01 0.00 0.00 0.00 0.00 0.00 0.00 0.00 0.00 0.00 0.00 0.02 0.01 0.00 0.00 0.00 0.00 0.00 0.00 0.00 0.00 0.00 0.00 0.00 0.00 0.00 0.00 0.00 0.00 0.00 0.00 0.00 0.00 0.00 0.00 0.00 0.00 0.00 0.00 0.00
0.17 0.10 0.01 0.00 0.00 0.00 0.00 0.00 0.00 0.00 0.00 0.00 0.01 0.02 0.01 0.00 0.00 0.02 0.00 0.00 0.00 0.00 0.00 0.00 0.00 0.00 0.00 0.00 0.00 0.00 0.00 0.00 0.00 0.00 0.00 0.00 0.00 0.00 0.00 0.00 0.00 0.00 0.00
0.01 0.00 0.00 0.00 0.00 0.00 0.00 0.00 0.00 0.01 0.03 0.01 0.00 0.00 0.00 0.01 0.01 0.00 0.00 0.00 0.00 0.00 0.00 0.00 0.00 0.00 0.00 0.00 0.00 0.00 0.00 0.00 0.00 0.00 0.00 0.00 0.00 0.00 0.00 0.00 0.00 0.00 0.00
0.00 0.00 0.00 0.00 0.00 0.00 0.00 0.00 0.01 0.06 0.02 0.04 0.01 0.00 0.00 0.00 0.00 0.00 0.00 0.00 0.00 0.00 0.00 0.00 0.00 0.00 0.00 0.00 0.00 0.00 0.00 0.00 0.00 0.00 0.00 0.00 0.00 0.00 0.00 0.00 0.00 0.00 0.00
0.00 0.00 0.00 0.00 0.00 0.00 0.00 0.02 0.04 0.05 0.05 0.04 0.00 0.00 0.00 0.00 0.00 0.00 0.00 0.00 0.00 0.00 0.00 0.00 0.00 0.00 0.00 0.00 0.00 0.00 0.00 0.00 0.00 0.00 0.00 0.00 0.00 0.00 0.00 0.00 0.00 0.00 0.00
0.00 0.00 0.00 0.00 0.00 0.01 0.00 0.01 0.00 0.00 0.00 0.00 0.00 0.00 0.00 0.00 0.00 0.00 0.00 0.00 0.00 0.00 0.00 0.00 0.00 0.00 0.00 0.00 0.00 0.00 0.00 0.00 0.00 0.00 0.00 0.00 0.00 0.00 0.00 0.00 0.00 0.00 0.00
0.00 0.00 0.00 0.00 0.00 0.00 0.00 0.00 0.00 0.00 0.00 0.00 0.00 0.00 0.00 0.00 0.00 0.00 0.00 0.00 0.00 0.00 0.00 0.00 0.00 0.00 0.00 0.00 0.00 0.00 0.00 0.00 0.00 0.00 0.00 0.00 0.00 0.00 0.00 0.00 0.00 0.00 0.00
0.00 0.00 0.00 0.00 0.03 0.05 0.03 0.00 0.00 0.00 0.00 0.00 0.00 0.00 0.00 0.00 0.00 0.00 0.00 0.00 0.00 0.00 0.00 0.00 0.00 0.00 0.00 0.00 0.00 0.00 0.00 0.00 0.00 0.00 0.00 0.00 0.00 0.00 0.00 0.00 0.00 0.00 0.00
0.00 0.00 0.00 0.00 0.05 0.06 0.02 0.00 0.00 0.00 0.00 0.00 0.00 0.00 0.00 0.00 0.00 0.00 0.00 0.00 0.00 0.00 0.00 0.00 0.00 0.00 0.00 0.00 0.00 0.00 0.00 0.00 0.00 0.00 0.00 0.00 0.00 0.00 0.00 0.00 0.00 0.00 0.00
0.00 0.00 0.00 0.01 0.01 0.01 0.00 0.00 0.00 0.00 0.00 0.00 0.00 0.00 0.00 0.00 0.00 0.00 0.00 0.00 0.00 0.00 0.00 0.00 0.00 0.00 0.00 0.00 0.00 0.00 0.00 0.00 0.00 0.00 0.00 0.00 0.00 0.00 0.00 0.00 0.00 0.00 0.00
0.00 0.00 0.01 0.02 0.01 0.00 0.00 0.00 0.00 0.00 0.00 0.00 0.00 0.00 0.00 0.00 0.00 0.00 0.00 0.00 0.00 0.00 0.00 0.00 0.00 0.00 0.00 0.00 0.00 0.00 0.00 0.00 0.00 0.00 0.00 0.00 0.00 0.00 0.00 0.00 0.00 0.00 0.00
0.00 0.00 0.01 0.03 0.01 0.00 0.00 0.00 0.00 0.00 0.00 0.00 0.00 0.00 0.00 0.00 0.00 0.00 0.00 0.00 0.00 0.00 0.00 0.00 0.00 0.00 0.00 0.00 0.00 0.00 0.00 0.00 0.00 0.00 0.00 0.00 0.00 0.00 0.00 0.00 0.00 0.00 0.00
0.02 0.02 0.01 0.03 0.00 0.00 0.00 0.00 0.00 0.00 0.00 0.00 0.00 0.00 0.00 0.00 0.00 0.00 0.00 0.00 0.00 0.00 0.00 0.00 0.00 0.00 0.00 0.00 0.00 0.00 0.00 0.00 0.00 0.00 0.00 0.00 0.00 0.00 0.00 0.00 0.00 0.00 0.00
0.01 0.03 0.01 0.00 0.04 0.01 0.00 0.00 0.00 0.00 0.00 0.00 0.00 0.00 0.00 0.00 0.00 0.00 0.00 0.00 0.00 0.00 0.00 0.00 0.00 0.00 0.00 0.00 0.00 0.00 0.00 0.00 0.00 0.00 0.00 0.00 0.00 0.00 0.00 0.00 0.00 0.00 0.00
0.00 0.00 0.02 0.04 0.02 0.00 0.00 0.00 0.00 0.00 0.00 0.00 0.00 0.00 0.00 0.00 0.00 0.00 0.00 0.00 0.00 0.00 0.00 0.00 0.00 0.00 0.00 0.00 0.00 0.00 0.00 0.00 0.00 0.00 0.00 0.00 0.00 0.00 0.00 0.00 0.00 0.00 0.00
MSLP
1013.00 1013.96 1014.48 1015.12 1015.65 1016.07 1016.34 1016.61 1016.87 1017.14 1017.52 1017.80 1018.04 1018.32 1018.54 1018.78 1018.93 1019.12 1019.21 1019.34 1019.23 1019.31 1019.44 1019.54 1019.59 1019.70 1019.65 1019.62 1019.59 1019.41 1019.14 1018.97 1019.09 1019.21 1019.09 1019.29 1019.10 1019.27 1018.85 1018.88 1018.66 1018.57 1018.52
1012.55 1013.67 1014.59 1015.26 1015.92 1016.29 1016.59 1016.84 1017.13 1017.59 1017.90 1018.09 1018.44 1018.76 1018.95 1019.17 1019.37 1019.52 1019.73 1019.73 1019.78 1019.85 1019.83 1019.98 1020.05 1020.31 1020.12 1019.92 1019.78 1019.69 1019.50 1019.13 1019.53 1019.63 1019.41 1019.37 1019.44 1019.13 1019.03 1019.21 1019.13 1019.01 1018.85
1012.66 1013.62 1014.73 1015.47 1016.04 1016.51 1016.83 1017.10 1017.23 1017.86 1018.23 1018.57 1018.85 1019.00 1019.33 1019.59 1019.81 1019.94 1020.13 1020.27 1020.22 1020.36 1020.29 1020.45 1020.53 1020.66 1020.52 1020.42 1020.34 1020.09 1019.80 1019.37 1019.01 1019.75 1019.83 1019.72 1019.86 1019.49 1019.41 1019.57 1019.39 1019.32 1019.23
1012.70 1013.66 1014.97 1015.72 1016.16 1016.75 1016.83 1017.33 1017.51 1018.16 1018.63 1019.00 1019.19 1019.47 1019.63 1019.88 1020.06 1020.27 1020.62 1020.52 1020.70 1020.68 1020.75 1020.81 1020.93 1020.84 1020.77 1020.55 1020.36 1020.03 1019.96 1019.48 1018.93 1018.84 1019.47 1019.51 1019.88 1019.92 1020.03 1019.86 1019.79 1019.69 1019.58
1012.90 1013.76 1015.35 1015.96 1016.43 1016.77 1017.43 1017.61 1017.90 1018.74 1018.91 1019.38 1019.62 1019.81 1020.11 1020.32 1020.46 1020.54 1020.90 1020.98 1021.07 1021.13 1021.16 1021.19 1021.29 1021.29 1021.24 1020.97 1020.73 1020.41 1019.95 1019.55 1019.05 1019.04 1019.40 1019.65 1020.13 1020.47 1020.51 1020.53 1020.31 1020.12 1019.95
1013.19 1014.41 1015.73 1016.35 1016.22 1016.80 1017.90 1018.27 1018.46 1018.99 1019.37 1019.57 1019.78 1020.15 1020.38 1020.74 1020.98 1021.21 1021.28 1021.38 1021.40 1021.49 1021.48 1021.55 1021.51 1021.77 1021.74 1021.48 1021.10 1020.69 1020.56 1019.95 1019.42 1019.52 1019.95 1020.48 1020.86 1020.81 1020.80 1020.79 1020.76 1020.59 1020.28
1014.07 1014.99 1015.87 1016.20 1016.43 1017.05 1017.76 1018.67 1018.95 1019.18 1019.74 1019.74 1020.02 1020.43 1020.81 1021.04 1021.40 1021.70 1021.72 1021.79 1021.91 1021.81 1022.04 1021.98 1022.18 1022.13 1022.02 1022.02 1021.59 1021.32 1021.03 1020.55 1020.34 1020.04 1020.55 1020.89 1021.26 1021.16 1021.05 1021.03 1021.03 1020.79 1020.55
1014.80 1015.29 1016.15 1016.52 1017.39 1017.22 1018.32 1019.15 1019.39 1019.84 1019.93 1020.19 1020.34 1020.79 1021.23 1021.47 1021.80 1022.16 1022.14 1022.08 1022.10 1022.22 1022.22 1022.55 1022.47 1022.33 1022.25 1021.95 1021.61 1021.74 1021.38 1020.92 1020.53 1020.23 1020.93 1021.35 1021.45 1021.44 1021.36 1021.34 1021.25 1021.01 1020.68
1015.46 1016.33 1016.24 1017.06 1017.54 1018.07 1018.71 1019.28 1019.88 1020.33 1020.32 1020.39 1020.70 1021.15 1021.60 1021.86 1022.14 1022.32 1022.19 1022.31 1022.38 1022.37 1022.43 1022.66 1022.53 1022.49 1022.42 1022.24 1021.65 1021.58 1021.54 1021.28 1020.97 1020.85 1021.09 1021.54 1021.48 1021.48 1021.60 1021.61 1021.46 1021.16 1020.93
1016.34 1016.99 1017.19 1017.62 1018.05 1018.45 1018.91 1019.61 1020.27 1020.51 1020.68 1020.72 1020.96 1021.33 1021.62 1021.70 1022.10 1022.42 1022.42 1022.52 1022.59 1022.66 1022.72 1022.67 1022.52 1022.61 1022.62 1022.36 1021.97 1021.80 1021.72 1021.40 1021.30 1021.03 1021.67 1021.88 1021.54 1021.57 1021.75 1021.72 1021.64 1021.50 1021.28
1017.19 1017.42 1017.28 1017.42 1017.96 1018.20 1019.11 1019.99 1020.51 1020.77 1020.79 1020.97 1021.11 1021.38 1021.61 1021.68 1021.96 1022.15 1022.43 1022.59 1022.65 1022.86 1022.66 1022.51 1022.49 1022.46 1022.45 1022.43 1022.32 1022.13 1022.09 1022.06 1021.71 1021.41 1021.86 1021.89 1021.65 1021.66 1021.84 1022.00 1021.83 1021.65 1021.71
1016.67 1017.11 1016.97 1017.05 1017.43 1017.98 1018.80 1019.74 1020.33 1020.52 1020.64 1020.87 1020.84 1021.15 1021.70 1021.62 1021.61 1021.87 1022.22 1022.41 1022.46 1022.49 1022.60 1022.55 1022.47 1022.59 1022.57 1022.56 1022.51 1022.41 1022.57 1022.42 1022.06 1021.84 1022.27 1021.99 1021.90 1021.84 1021.90 1022.19 1022.21 1022.07 1022.03
1017.11 1016.93 1016.65 1016.93 1017.36 1017.78 1018.67 1019.24 1019.66 1020.10 1020.32 1020.66 1020.90 1020.84 1020.96 1021.07 1021.26 1021.71 1022.06 1022.15 1022.44 1022.29 1022.46 1022.49 1022.40 1022.56 1022.57 1022.59 1022.76 1022.68 1022.58 1022.56 1022.51 1022.21 1022.24 1022.18 1022.22 1022.15 1022.08 1022.20 1022.47 1022.43 1022.35
1015.82 1016.28 1016.82 1017.11 1017.44 1017.96 1018.26 1018.69 1019.03 1019.70 1020.20 1020.35 1020.55 1020.70 1020.85 1021.02 1020.99 1021.08 1021.24 1021.56 1021.83 1022.12 1022.16 1022.45 1022.97 1023.02 1022.92 1022.71 1022.59 1022.61 1022.57 1022.51 1022.43 1022.22 1022.38 1022.23 1022.37 1022.34 1022.32 1022.47 1022.54 1022.65 1022.70
1015.77 1016.34 1017.01 1017.32 1017.71 1018.04 1018.30 1018.70 1019.16 1020.01 1020.16 1020.68 1020.85 1020.57 1020.82 1021.10 1021.32 1021.10 1021.29 1021.74 1022.01 1022.57 1022.77 1022.94 1023.18 1023.47 1023.03 1022.81 1022.82 1022.77 1022.71 1022.72 1022.55 1022.33 1021.99 1022.12 1022.50 1022.56 1022.39 1022.77 1022.93 1022.74 1022.90
1015.73 1016.55 1017.22 1017.64 1017.97 1018.15 1018.38 1019.04 1019.83 1020.46 1020.60 1020.86 1020.79 1021.24 1021.72 1021.53 1021.80 1022.03 1021.98 1022.57 1022.86 1023.08 1023.08 1023.24 1023.25 1023.45 1023.41 1023.12 1023.14 1022.91 1022.90 1022.79 1022.70 1022.47 1022.12 1021.99 1022.41 1022.81 1022.83 1023.00 1023.27 1022.99 1022.97
1015.41 1016.38 1017.25 1017.88 1018.07 1018.32 1018.75 1019.34 1019.97 1020.53 1020.76 1021.09 1021.30 1021.25 1021.84 1021.60 1021.80 1022.40 1022.50 1022.86 1023.17 1023.04 1023.25 1023.41 1023.41 1023.62 1023.73 1023.40 1023.23 1023.10 1023.00 1022.98 1022.84 1022.44 1022.25 1022.05 1022.23 1022.73 1022.80 1022.83 1023.02 1022.85 1022.73
1015.34 1016.47 1017.17 1017.61 1018.12 1018.53 1019.07 1019.50 1019.82 1020.47 1021.23 1020.88 1021.65 1021.35 1022.36 1022.41 1022.22 1022.66 1022.78 1022.97 1023.16 1023.24 1023.29 1023.58 1023.92 1024.23 1024.14 1023.96 1023.57 1023.47 1023.24 1023.22 1022.88 1022.40 1022.24 1022.15 1021.88 1022.02 1022.48 1022.59 1022.72 1022.68 1022.60
1014.76 1015.88 1016.79 1017.48 1018.32 1019.05 1019.91 1020.33 1020.84 1020.51 1021.08 1021.26 1021.76 1021.37 1022.33 1022.48 1022.45 1022.65 1022.78 1023.05 1023.27 1023.31 1023.48 1023.88 1024.37 1024.42 1024.40 1024.11 1023.82 1023.55 1023.51 1023.41 1023.12 1022.59 1022.26 1022.05 1021.71 1021.97 1022.27 1022.24 1022.47 1022.64 1022.80
1014.36 1015.63 1016.90 1017.93 1018.70 1019.50 1020.00 1020.34 1020.38 1020.50 1020.27 1021.00 1021.41 1021.60 1022.18 1022.30 1022.41 1022.47 1022.88 1023.27 1023.43 1023.46 1023.91 1024.23 1024.49 1024.44 1024.49 1024.26 1024.07 1024.02 1023.82 1023.43 1023.21 1022.88 1022.23 1021.95 1022.07 1022.03 1022.25 1022.54 1022.64 1022.76 1022.84
1014.57 1015.71 1016.71 1017.94 1018.92 1019.45 1019.73 1019.67 1019.65 1020.19 1020.52 1021.09 1021.20 1021.76 1021.82 1022.11 1022.39 1022.49 1022.84 1023.14 1023.41 1023.85 1024.05 1023.94 1024.23 1024.50 1024.57 1024.43 1024.47 1024.29 1023.94 1023.64 1023.40 1023.09 1022.88 1022.92 1022.63 1022.41 1022.58 1022.65 1022.74 1022.80 1022.84
1014.64 1015.58 1016.75 1017.82 1018.61 1019.01 1018.91 1019.04 1019.31 1019.67 1020.34 1020.70 1021.00 1021.44 1021.72 1022.15 1022.33 1022.74 1023.21 1023.48 1023.66 1023.92 1024.07 1024.11 1024.23 1024.47 1024.55 1024.56 1024.84 1024.56 1024.15 1023.87 1023.44 1023.34 1023.17 1023.02 1023.00 1022.85 1022.76 1022.63 1022.62 1022.65 1022.72
1014.58 1015.48 1016.52 1017.60 1018.19 1018.34 1018.43 1018.67 1019.00 1019.37 1019.93 1020.51 1021.15 1021.62 1021.75 1022.06 1022.39 1022.81 1023.17 1023.47 1023.71 1023.86 1024.05 1024.09 1024.15 1024.29 1024.56 1024.61 1024.68 1024.86 1024.48 1024.18 1023.83 1023.77 1023.60 1023.35 1023.33 1023.28 1022.93 1022.80 1022.74 1022.72 1022.77
1014.68 1015.40 1016.21 1017.02 1017.39 1017.66 1017.88 1018.29 1018.85 1019.27 1019.77 1020.06 1020.56 1021.18 1021.65 1022.09 1022.51 1022.69 1022.86 1023.15 1023.41 1023.63 1023.88 1023.86 1023.75 1024.07 1024.26 1024.51 1024.55 1024.51 1024.52 1024.44 1024.12 1023.77 1023.82 1023.80 1023.67 1023.55 1023.34 1023.08 1022.87 1022.82 1022.74
1014.87 1015.68 1016.21 1016.50 1016.66 1017.13 1017.60 1018.12 1018.64 1018.97 1019.38 1019.91 1020.62 1021.38 1021.85 1022.19 1022.32 1022.53 1022.60 1022.84 1023.15 1023.42 1023.59 1023.72 1023.78 1023.85 1024.02 1024.33 1024.55 1024.66 1024.66 1024.62 1024.39 1024.35 1023.92 1024.04 1023.93 1023.75 1023.40 1023.45 1023.29 1023.02 1022.62
1014.78 1015.17 1015.58 1016.12 1016.37 1016.92 1017.56 1017.93 1018.40 1018.93 1019.51 1020.24 1020.82 1021.38 1021.58 1021.98 1022.33 1022.51 1022.79 1023.17 1023.40 1023.53 1023.67 1023.73 1023.71 1023.80 1023.98 1024.20 1024.29 1024.54 1024.81 1024.96 1025.05 1024.86 1024.72 1024.54 1024.36 1024.06 1023.80 1023.60 1023.37 1023.12 1022.79
Thickness
5725 5720 5717 5710 5706 5703 5701 5698 5695 5692 5689 5686 5683 5680 5678 5676 5675 5674 5673 5672 5674 5673 5672 5671 5670 5669 5667 5666 5665 5665 5666 5666 5663 5661 5661 5659 5660 5659 5662 5661 5661 5661 5661
5723 5717 5711 5705 5699 5697 5694 5692 5689 5685 5682 5681 5677 5674 5673 5671 5669 5668 5666 5667 5667 5667 5667 5666 5664 5660 5661 5662 5662 5660 5660 5661 5656 5655 5655 5657 5654 5658 5658 5655 5655 5655 5655
5721 5712 5703 5698 5693 5691 5689 5685 5685 5679 5676 5672 5670 5669 5667 5665 5663 5663 5662 5660 5662 5660 5660 5658 5656 5655 5655 5655 5654 5654 5655 5657 5658 5654 5649 5653 5649 5652 5651 5649 5649 5648 5648
5715 5705 5694 5688 5686 5683 5683 5680 5679 5672 5668 5664 5664 5662 5662 5661 5661 5659 5656 5657 5655 5655 5654 5652 5651 5651 5651 5652 5652 5654 5652 5654 5657 5656 5650 5650 5645 5645 5643 5643 5642 5642 5641
5707 5699 5685 5680 5677 5677 5671 5670 5670 5663 5662 5657 5656 5657 5656 5655 5655 5654 5651 5650 5649 5648 5647 5646 5645 5644 5644 5645 5646 5647 5649 5651 5653 5650 5647 5643 5640 5636 5635 5635 5635 5635 5636
5697 5686 5675 5670 5671 5670 5659 5657 5660 5658 5653 5652 5654 5652 5651 5649 5647 5646 5645 5644 5644 5642 5642 5641 5641 5637 5636 5637 5639 5642 5641 5645 5646 5644 5640 5634 5630 5630 5629 5628 5628 5628 5630
5687 5675 5666 5665 5666 5662 5656 5649 5653 5652 5648 5650 5651 5649 5646 5646 5643 5640 5639 5639 5638 5638 5635 5636 5632 5631 5631 5629 5632 5633 5633 5636 5636 5636 5634 5627 5622 5621 5621 5621 5619 5621 5622
5675 5666 5658 5657 5650 5656 5649 5644 5647 5643 5646 5646 5647 5645 5641 5640 5637 5632 5633 5634 5634 5632 5631 5627 5626 5627 5626 5627 5628 5625 5627 5629 5630 5630 5625 5620 5617 5614 5613 5612 5612 5613 5615
5669 5659 5654 5647 5648 5647 5644 5644 5641 5638 5641 5643 5642 5640 5636 5634 5630 5628 5629 5629 5627 5627 5626 5622 5621 5621 5621 5620 5623 5622 5620 5620 5621 5621 5617 5613 5611 5609 5607 5605 5605 5606 5607
5662 5654 5648 5641 5641 5644 5641 5640 5636 5636 5636 5638 5638 5635 5633 5634 5628 5624 5625 5624 5622 5621 5618 5617 5617 5614 5612 5614 5614 5614 5611 5612 5611 5610 5607 5604 5604 5602 5599 5599 5598 5598 5598
5653 5648 5642 5641 5644 5645 5641 5635 5633 5632 5634 5634 5634 5633 5631 5628 5625 5624 5622 5619 5618 5614 5615 5615 5612 5609 5607 5606 5607 5604 5603 5601 5601 5600 5598 5597 5597 5595 5592 5590 5591 5592 5589
5644 5645 5647 5649 5649 5648 5643 5638 5635 5634 5634 5632 5632 5631 5626 5623 5625 5621 5619 5616 5615 5614 5612 5608 5606 5604 5601 5599 5598 5596 5593 5591 5591 5591 5590 5589 5587 5586 5585 5582 5581 5583 5582
5640 5643 5652 5651 5651 5650 5645 5641 5638 5635 5632 5629 5627 5628 5626 5624 5624 5620 5616 5615 5610 5609 5607 5604 5603 5598 5595 5595 5590 5588 5586 5582 5580 5581 5583 5581 5578 5576 5576 5576 5572 5571 5572
5654 5652 5652 5651 5650 5648 5646 5642 5641 5636 5632 5631 5629 5625 5624 5623 5622 5619 5618 5614 5609 5602 5601 5597 5591 5588 5587 5586 5584 5582 5578 5576 5573 5573 5573 5574 5570 5568 5565 5565 5566 5564 5562
5655 5653 5650 5649 5647 5645 5644 5641 5639 5631 5629 5622 5621 5624 5621 5618 5615 5616 5612 5606 5602 5595 5593 5589 5583 5577 5578 5577 5574 5572 5570 5567 5566 5565 5566 5567 5560 5560 5561 5554 5553 5556 5553
5654 5649 5647 5645 5642 5641 5641 5635 5628 5621 5621 5620 5621 5614 5608 5611 5607 5603 5604 5598 5592 5589 5583 5576 5574 5571 5567 5568 5565 5564 5561 5560 5558 5557 5559 5559 5555 5550 5549 5547 5541 5545 5543
5657 5652 5645 5640 5639 5638 5634 5627 5624 5621 5619 5614 5611 5610 5603 5604 5600 5595 5593 5586 5580 5579 5573 5569 5567 5563 5559 5559 5558 5556 5554 5551 5549 5550 5549 5548 5547 5542 5539 5538 5535 5533 5532
5654 5646 5642 5642 5637 5633 5629 5627 5624 5619 5611 5613 5604 5605 5598 5593 5591 5585 5581 5576 5572 5569 5566 5562 5556 5550 5547 5546 5547 5545 5544 5539 5539 5539 5538 5534 5534 5531 5528 5525 5520 5522 5519
5662 5654 5648 5644 5635 5628 5621 5617 5612 5614 5609 5605 5599 5600 5589 5584 5581 5577 5573 5568 5563 5559 5555 5549 5540 5536 5532 5533 5533 5533 5530 5527 5524 5524 5523 5522 5522 5518 5512 5510 5506 5504 5502
5664 5654 5644 5636 5629 5622 5617 5613 5610 5608 5608 5601 5596 5591 5583 5579 5574 5571 5566 5558 5552 5548 5541 5534 5529 5526 5521 5520 5520 5517 5515 5514 5512 5509 5511 5508 5504 5501 5495 5490 5488 5484 5481
5660 5651 5643 5633 5625 5620 5616 5614 5612 5605 5602 5595 5590 5582 5580 5572 5566 5562 5556 5549 5543 5535 5530 5527 5523 5516 5512 5509 5504 5503 5501 5500 5498 5493 5490 5485 5481 5478 5473 5467 5463 5459 5456
5657 5649 5639 5631 5624 5619 5618 5614 5610 5605 5597 5592 5586 5579 5572 5565 5559 5552 5544 5537 5532 5526 5520 5516 5511 5504 5499 5494 5487 5485 5483 5486 5484 5479 5472 5466 5459 5454 5448 5442 5438 5434 5431
5653 5647 5638 5628 5624 5620 5617 5613 5607 5602 5595 5588 5580 5572 5565 5558 5551 5543 5536 5529 5523 5516 5509 5504 5498 5492 5485 5481 5475 5467 5464 5462 5463 5457 5450 5443 5435 5426 5420 5414 5408 5399 5393
5648 5645 5637 5628 5625 5620 5616 5610 5603 5597 5589 5585 5578 5570 5560 5551 5542 5535 5528 5522 5515 5508 5501 5494 5488 5481 5474 5465 5461 5455 5447 5441 5435 5437 5429 5420 5411 5401 5389 5381 5373 5363 5354
5642 5635 5631 5628 5625 5620 5615 5608 5599 5593 5586 5578 5567 5557 5549 5542 5534 5528 5524 5516 5508 5500 5491 5484 5476 5470 5463 5453 5444 5436 5427 5418 5411 5402 5402 5393 5388 5371 5357 5345 5337 5331 5327
5640 5637 5633 5627 5625 5618 5610 5604 5596 5587 5578 5567 5558 5548 5541 5533 5525 5517 5509 5500 5491 5483 5475 5468 5461 5455 5445 5434 5425 5415 5404 5394 5383 5373 5363 5356 5347 5341 5325 5317 5311 5308 5306